Time,TemperatureF,DewpointF,PressureIn,WindDirection,WindDirectionDegrees,WindSpeedMPH,WindSpeedGustMPH,Humidity,HourlyPrecipIn,Conditions,Clouds,dailyrainin,SolarRadiationWatts/m^2,SoftwareType,DateUTC
2014-09-01 00:42:00,54.0,44.0,-100.00,North,8,1.0,5.0,68,-99.99,,,0.00,0.000000,,2014-09-01 06:42:00,
2014-09-01 00:52:00,54.0,44.0,-100.00,North,8,1.0,5.0,68,-99.99,,,0.00,0.000000,,2014-09-01 06:52:00,
2014-09-01 01:00:00,52.0,44.0,-100.00,NNW,336,2.0,5.0,74,-99.99,,,0.00,0.000000,,2014-09-01 07:00:00,
2014-09-01 02:00:00,50.0,45.0,-100.00,SE,126,2.0,4.0,81,-99.99,,,0.00,0.000000,,2014-09-01 08:00:00,
2014-09-01 02:42:00,50.0,45.0,-100.00,SE,126,2.0,4.0,81,-99.99,,,0.00,0.000000,,2014-09-01 08:42:00,
2014-09-01 03:44:00,51.0,43.0,-100.00,ESE,123,4.0,7.0,74,-99.99,,,0.00,0.000000,,2014-09-01 09:44:00,
2014-09-01 03:54:00,51.0,43.0,-100.00,ESE,123,4.0,7.0,74,-99.99,,,0.00,0.000000,,2014-09-01 09:54:00,
2014-09-01 04:00:00,51.0,44.0,-100.00,SSE,164,2.0,3.0,76,-99.99,,,0.00,0.000000,,2014-09-01 10:00:00,
2014-09-01 05:00:00,50.0,45.0,-100.00,WNW,296,2.0,5.0,83,-99.99,,,0.00,0.000000,,2014-09-01 11:00:00,
2014-09-01 05:42:00,50.0,45.0,-100.00,WNW,296,2.0,5.0,83,-99.99,,,0.00,0.000000,,2014-09-01 11:42:00,
2014-09-01 05:52:00,50.0,45.0,-100.00,WNW,296,2.0,5.0,83,-99.99,,,0.00,0.000000,,2014-09-01 11:52:00,
2014-09-01 06:00:00,49.0,46.0,-100.00,ESE,120,1.0,4.0,86,-99.99,,,0.00,0.000000,,2014-09-01 12:00:00,
2014-09-01 06:42:00,49.0,46.0,-100.00,ESE,120,1.0,4.0,86,-99.99,,,0.00,0.000000,,2014-09-01 12:42:00,
2014-09-01 06:53:00,49.0,46.0,-100.00,ESE,120,1.0,4.0,86,-99.99,,,0.00,0.000000,,2014-09-01 12:53:00,
2014-09-01 07:42:00,48.0,45.0,-100.00,East,85,1.0,4.0,89,-99.99,,,0.00,2.320000,,2014-09-01 13:42:00,
2014-09-01 07:53:00,48.0,45.0,-100.00,East,85,1.0,4.0,89,-99.99,,,0.00,2.320000,,2014-09-01 13:53:00,
2014-09-01 08:52:00,49.0,46.0,-100.00,SSE,165,1.0,3.0,91,-99.99,,,0.00,53.110001,,2014-09-01 14:52:00,
2014-09-01 09:00:00,53.0,47.0,-100.00,SSW,195,1.0,3.0,82,-99.99,,,0.00,302.750000,,2014-09-01 15:00:00,
2014-09-01 09:54:00,53.0,47.0,-100.00,SSW,195,1.0,3.0,82,-99.99,,,0.00,302.750000,,2014-09-01 15:54:00,
2014-09-01 10:43:00,59.0,46.0,-100.00,SSW,205,1.0,3.0,60,-99.99,,,0.00,469.989990,,2014-09-01 16:43:00,
2014-09-01 10:54:00,59.0,46.0,-100.00,SSW,205,1.0,3.0,60,-99.99,,,0.00,469.989990,,2014-09-01 16:54:00,
2014-09-01 11:00:00,62.0,37.0,-100.00,SE,146,4.0,10.0,39,-99.99,,,0.00,651.650024,,2014-09-01 17:00:00,
2014-09-01 11:43:00,62.0,37.0,-100.00,SE,146,4.0,10.0,39,-99.99,,,0.00,651.650024,,2014-09-01 17:43:00,
2014-09-01 12:00:00,65.0,40.0,-100.00,West,276,3.0,7.0,41,-99.99,,,0.00,743.109985,,2014-09-01 18:00:00,
2014-09-01 12:42:00,65.0,40.0,-100.00,West,276,3.0,7.0,41,-99.99,,,0.00,743.109985,,2014-09-01 18:42:00,
2014-09-01 12:52:00,65.0,40.0,-100.00,West,276,3.0,7.0,41,-99.99,,,0.00,743.109985,,2014-09-01 18:52:00,
2014-09-01 13:00:00,66.0,38.0,-100.00,SE,138,4.0,10.0,35,-99.99,,,0.00,816.559998,,2014-09-01 19:00:00,
2014-09-01 13:42:00,66.0,38.0,-100.00,SE,138,4.0,10.0,35,-99.99,,,0.00,816.559998,,2014-09-01 19:42:00,
2014-09-01 13:53:00,66.0,38.0,-100.00,SE,138,4.0,10.0,35,-99.99,,,0.00,816.559998,,2014-09-01 19:53:00,
2014-09-01 14:00:00,67.0,36.0,-100.00,SSW,208,3.0,9.0,32,-99.99,,,0.00,852.239990,,2014-09-01 20:00:00,
2014-09-01 14:52:00,67.0,36.0,-100.00,SSW,208,3.0,9.0,32,-99.99,,,0.00,852.239990,,2014-09-01 20:52:00,
2014-09-01 15:00:00,69.0,38.0,-100.00,SE,130,5.0,12.0,32,-99.99,,,0.00,774.260010,,2014-09-01 21:00:00,
2014-09-01 15:44:00,69.0,38.0,-100.00,SE,130,5.0,12.0,32,-99.99,,,0.00,774.260010,,2014-09-01 21:44:00,
2014-09-01 16:43:00,70.0,38.0,-100.00,East,80,3.0,7.0,30,-99.99,,,0.00,683.260010,,2014-09-01 22:43:00,